FW5298 Weather Reports


time (UTC)temp
F
wind
direction
speed
knots
gust
knots
rain 1hr
in
rain 24hr
in
rain mn
in
humidity
%
barometer
mb
20260507052552 57 165 3.5 6.1 0.00 0.00 0.00 60 1013.5
20260507051529 55 184 2.6 6.1 0.00 0.00 0.00 62 1013.5
20260507050528 53 181 2.6 9.6 0.00 0.00 0.00 63 1013.4
20260507045527 52 180 2.6 5.2 0.00 0.00 0.00 64 1013.3
20260507044524 52 181 1.7 6.1 0.00 0.00 0.00 63 1013.2
20260507043542 51 185 2.6 13.9 0.00 0.00 0.00 63 1013.2
20260507042520 51 180 1.7 5.2 0.00 0.00 0.00 62 1013.1
20260507041518 51 190 1.7 7.8 0.00 0.00 0.00 62 1013.1
20260507040538 51 180 1.7 4.3 0.00 0.00 0.00 61 1013.1
20260507035514 51 181 1.7 3.5 0.00 0.00 0.00 60 1013.0
20260507034512 51 184 1.7 3.5 0.00 0.00 0.00 59 1013.1
20260507033510 52 183 1.7 4.3 0.00 0.00 0.00 57 1013.0
20260507032510 52 187 1.7 14.8 0.00 0.00 0.00 56 1013.0
20260507031506 52 195 1.7 4.3 0.00 0.00 0.00 56 1012.9
20260507030504 53 173 1.7 5.2 0.00 0.00 0.00 55 1013.0
20260507025008 53 175 2.6 4.3 0.00 0.00 0.00 54 1012.8
20260507023959 54 181 1.7 7.8 0.00 0.00 0.00 53 1012.8
20260507022958 54 176 2.6 6.1 0.00 0.00 0.00 53 1012.8
20260507022015 54 178 1.7 3.5 0.00 0.00 0.00 53 1012.8
20260507020953 54 184 1.7 4.3 0.00 0.00 0.00 53 1012.8
20260507015951 54 189 1.7 5.2 0.00 0.00 0.00 53 1012.6
20260507014950 55 184 1.7 7.0 0.00 0.00 0.00 53 1012.6
20260507013947 55 195 1.7 4.3 0.00 0.00 0.00 53 1012.7
20260507012945 55 188 3.5 14.8 0.00 0.00 0.00 53 1012.6
20260507011943 55 184 2.6 7.0 0.00 0.00 0.00 53 1012.7
20260507010941 55 181 3.5 6.1 0.00 0.00 0.00 53 1012.7
20260507005939 55 183 2.6 6.1 0.00 0.00 0.00 52 1012.7
20260507004937 55 176 2.6 6.1 0.00 0.00 0.00 52 1012.7
20260507003935 56 181 2.6 6.1 0.00 0.00 0.00 52 1012.7
20260507002933 56 180 1.7 7.0 0.00 0.00 0.00 51 1012.6
20260507001931 56 183 1.7 6.1 0.00 0.00 0.00 51 1012.7
20260507000949 56 173 3.5 6.1 0.00 0.00 0.00 51 1012.6
20260506235948 56 173 3.5 6.1 0.00 0.00 0.00 51 1012.6
20260506234924 57 178 3.5 7.8 0.00 0.00 0.00 51 1012.7
20260506233922 57 181 3.5 8.7 0.00 0.00 0.00 51 1012.7
20260506232920 57 170 3.5 7.8 0.00 0.00 0.00 52 1012.6
20260506231939 57 174 3.5 7.8 0.00 0.00 0.00 52 1012.7
20260506230917 57 171 3.5 7.8 0.00 0.00 0.00 53 1012.7
20260506225916 58 174 3.5 8.7 0.00 0.00 0.00 53 1012.6
20260506224913 58 182 3.5 7.8 0.00 0.00 0.00 54 1012.7
20260506223911 58 181 3.5 8.7 0.00 0.00 0.00 54 1012.7
20260506222908 58 184 3.5 9.6 0.00 0.00 0.00 55 1012.7
20260506221907 58 181 3.5 9.6 0.00 0.00 0.00 55 1012.7
20260506220905 59 184 3.5 7.8 0.00 0.00 0.00 55 1012.7
20260506215904 59 176 4.3 7.8 0.00 0.00 0.00 54 1012.6
20260506214901 59 178 3.5 8.7 0.00 0.00 0.00 54 1012.5
20260506213859 60 178 5.2 12.2 0.00 0.00 0.00 54 1012.5
20260506212856 60 177 5.2 12.2 0.00 0.00 0.00 53 1012.4
20260506211855 60 184 4.3 12.2 0.00 0.00 0.00 53 1012.4
20260506210912 61 172 5.2 11.3 0.00 0.00 0.00 52 1012.4
20260506205851 61 176 4.3 9.6 0.00 0.00 0.00 52 1012.4
20260506204849 61 172 4.3 8.7 0.00 0.00 0.00 51 1012.4
20260506203846 62 166 4.3 12.2 0.00 0.00 0.00 51 1012.4
20260506202846 62 172 4.3 13.0 0.00 0.00 0.00 50 1012.3
20260506201845 62 174 5.2 10.4 0.00 0.00 0.00 50 1012.3
20260506200903 63 176 3.5 7.8 0.00 0.00 0.00 49 1012.2
20260506195838 63 170 4.3 13.0 0.00 0.00 0.00 49 1012.1
20260506194837 63 166 5.2 10.4 0.00 0.00 0.00 49 1012.0
20260506193835 64 173 4.3 9.6 0.00 0.00 0.00 48 1012.0
20260506192835 64 171 4.3 11.3 0.00 0.00 0.00 48 1011.9
20260506191832 64 170 4.3 8.7 0.00 0.00 0.00 47 1011.8
20260506190829 65 181 3.5 9.6 0.00 0.00 0.00 47 1011.8
20260506185828 65 173 3.5 8.7 0.00 0.00 0.00 46 1011.6
20260506184825 65 178 3.5 9.6 0.00 0.00 0.00 46 1011.5
20260506183844 66 173 5.2 12.2 0.00 0.00 0.00 45 1011.4
20260506182821 66 178 3.5 6.1 0.00 0.00 0.00 45 1011.3
20260506181819 67 183 2.6 6.1 0.00 0.00 0.00 44 1011.2
20260506180837 67 178 3.5 7.8 0.00 0.00 0.00 44 1011.1
20260506175815 68 178 3.5 6.1 0.00 0.00 0.00 43 1011.0
20260506174813 69 174 3.5 14.8 0.00 0.00 0.00 42 1010.9
20260506173811 69 191 2.6 13.0 0.00 0.00 0.00 41 1010.9
20260506172809 70 189 3.5 12.2 0.00 0.00 0.00 40 1010.8
20260506171807 71 178 2.6 10.4 0.00 0.00 0.00 39 1010.7
20260506170805 72 184 2.6 5.2 0.00 0.00 0.00 39 1010.7
20260506165803 73 194 3.5 5.2 0.00 0.00 0.00 39 1010.7
20260506164801 73 194 3.5 7.8 0.00 0.00 0.00 38 1010.6
20260506163759 74 200 4.3 7.8 0.00 0.00 0.00 37 1010.7
20260506162817 74 184 3.5 12.2 0.00 0.00 0.00 37 1010.6
20260506161755 75 176 3.5 6.1 0.00 0.00 0.00 37 1010.5
20260506160813 76 173 3.5 7.8 0.00 0.00 0.00 36 1010.5
20260506155831 76 174 3.5 7.8 0.00 0.00 0.00 36 1010.5
20260506154749 77 178 3.5 9.6 0.00 0.00 0.00 35 1010.5
20260506153747 77 178 3.5 10.4 0.00 0.00 0.00 35 1010.5
20260506152745 78 178 3.5 12.2 0.00 0.00 0.00 35 1010.5
20260506151743 78 194 3.5 7.0 0.00 0.00 0.00 35 1010.6
20260506150801 78 175 3.5 15.6 0.00 0.00 0.00 35 1010.6
20260506145739 78 195 2.6 6.1 0.00 0.00 0.00 35 1010.6
20260506144737 79 196 3.5 8.7 0.00 0.00 0.00 35 1010.7
20260506143734 79 205 3.5 10.4 0.00 0.00 0.00 34 1010.7
20260506142753 79 187 3.5 8.7 0.00 0.00 0.00 34 1010.8
20260506141731 80 204 3.5 6.1 0.00 0.00 0.00 35 1010.7
20260506140749 80 198 3.5 17.4 0.00 0.00 0.00 34 1010.7
20260506135727 80 188 3.5 8.7 0.00 0.00 0.00 33 1010.7
20260506134725 80 194 2.6 5.2 0.00 0.00 0.00 34 1010.7
20260506133723 80 186 3.5 11.3 0.00 0.00 0.00 33 1010.7
20260506132721 81 183 2.6 5.2 0.00 0.00 0.00 33 1010.7
20260506131718 81 190 2.6 6.1 0.00 0.00 0.00 33 1010.8
20260506130737 81 204 3.5 13.9 0.00 0.00 0.00 33 1010.8
20260506125714 80 192 3.5 7.0 0.00 0.00 0.00 33 1010.9
20260506124732 81 184 3.5 8.7 0.00 0.00 0.00 33 1011.0
20260506123712 80 182 2.6 5.2 0.00 0.00 0.00 33 1011.0
20260506122709 80 196 2.6 7.0 0.00 0.00 0.00 33 1011.2
20260506121708 80 170 3.5 6.1 0.00 0.00 0.00 33 1011.2
20260506120706 80 185 3.5 18.2 0.00 0.00 0.00 32 1011.3
20260506115706 80 189 2.6 5.2 0.00 0.00 0.00 32 1011.4
20260506114703 80 178 3.5 6.1 0.00 0.00 0.00 32 1011.5
20260506113700 80 173 3.5 8.7 0.00 0.00 0.00 32 1011.5
20260506112657 80 181 3.5 7.8 0.00 0.00 0.00 35 1011.6
20260506111656 79 177 3.5 7.0 0.00 0.00 0.00 34 1011.6
20260506110655 79 172 3.5 13.0 0.00 0.00 0.00 35 1011.7
20260506105712 79 189 3.5 7.8 0.00 0.00 0.00 35 1011.8
20260506104649 79 177 3.5 9.6 0.00 0.00 0.00 35 1011.8
20260506103649 78 181 2.6 12.2 0.00 0.00 0.00 36 1011.8
20260506102646 78 194 1.7 6.1 0.00 0.00 0.00 36 1011.8
20260506101644 78 174 3.5 8.7 0.00 0.00 0.00 36 1011.9
20260506100642 77 177 3.5 6.1 0.00 0.00 0.00 37 1012.0
20260506095640 77 168 3.5 12.2 0.00 0.00 0.00 36 1012.1
20260506094637 77 184 3.5 7.8 0.00 0.00 0.00 38 1012.1
20260506093637 76 198 2.6 6.1 0.00 0.00 0.00 39 1012.2
20260506092633 75 190 3.5 9.6 0.00 0.00 0.00 39 1012.2
20260506091632 74 185 2.6 5.2 0.00 0.00 0.00 40 1012.2
20260506090630 73 185 2.6 6.1 0.00 0.00 0.00 42 1012.2
20260506085628 72 178 2.6 6.1 0.00 0.00 0.00 42 1012.2
20260506084625 72 177 3.5 7.0 0.00 0.00 0.00 43 1012.2
20260506083623 71 177 3.5 14.8 0.00 0.00 0.00 43 1012.2
20260506082623 69 187 3.5 12.2 0.00 0.00 0.00 45 1012.2
20260506081619 68 181 3.5 6.1 0.00 0.00 0.00 46 1012.2
20260506080617 67 171 3.5 10.4 0.00 0.00 0.00 46 1012.2
20260506072609 65 172 3.5 6.1 0.00 0.00 0.00 48 1012.3
20260506071607 64 176 3.5 6.1 0.00 0.00 0.00 49 1012.2
20260506070606 63 177 2.6 6.1 0.00 0.00 0.00 50 1012.2
20260506061616 60 175 3.5 6.1 0.00 0.00 0.00 52 1012.4
20260506060553 59 181 3.5 10.4 0.00 0.00 0.00 53 1012.4